Auburn-Lewiston, ME

10:02 PM EDT on May 29, 2017 (GMT -0400)
Auburn-Lewiston Municipal

Weather History for KLEW - November, 2011

Change the Weather History Date:

Thursday, November 10, 2011

  Actual Average Record
Temperature  
Mean Temperature 52 °F -  
Max Temperature 57 °F 43 °F 64 °F (2002)
Min Temperature 46 °F 28 °F 14 °F (2004)
Degree Days  
Heating Degree Days 14    
Growing Degree Days 2 (Base 50)    
Moisture  
Dew Point 52 °F    
Average Humidity 96    
Maximum Humidity 100    
Minimum Humidity 88    
Precipitation  
Precipitation 0.75 in - - ()
Sea Level Pressure  
Sea Level Pressure 29.86 in    
Wind  
Wind Speed 4 mph (SSE)    
Max Wind Speed 10 mph    
Max Gust Speed -    
Visibility 4 miles    
Events      
Averages and records for this station are not official NWS values.
T = Trace of Precipitation, MM = Missing Value Source: NWS Daily Summary

Daily Weather History Graph

Daily Weather History Graph

Search for Another Location

Airport or City:

Trip Planner

Search our weather history database for the weather conditions in past years. The results will help you decide how hot, cold, wet, or windy it might be!

Date:

Astronomy

Nov. 10, 2011 Rise Set
Actual Time 6:29 AM EST 4:20 PM EST
Civil Twilight 5:58 AM EST 4:51 PM EST
Nautical Twilight 5:23 AM EST 5:25 PM EST
Astronomical Twilight 4:49 AM EST 5:59 PM EST
Moon 4:03 PM EST (11/10) 6:20 AM EST (11/10)
Length of Visible Light 10h 52m
Length of Day
9h 51m
Full, 100% of the Moon is Illuminated
Nov 10
Full
Nov 10
Full
Nov 18
Last Quarter
Nov 25
New
Dec 2
First Quarter

Hourly Weather History & Observations

Time (EST) Temp. Windchill Dew Point Humidity Pressure Visibility Wind Dir Wind Speed Gust Speed Precip Events Conditions
12:15 AM 46.4 °F 42.9 °F 46.4 °F 100% 30.06 in 1.2 mi SSE 6.9 mph - N/A   Overcast
12:35 AM 46.4 °F 44.3 °F 46.4 °F 100% 30.06 in 7.0 mi South 4.6 mph - N/A   Mostly Cloudy
12:55 AM 48.2 °F - 46.4 °F 93% 30.06 in 7.0 mi South 3.5 mph - N/A   Overcast
1:15 AM 48.2 °F - 46.4 °F 93% 30.06 in 8.0 mi South 3.5 mph - N/A   Overcast
1:35 AM 48.2 °F - 46.4 °F 93% 30.06 in 8.0 mi SSE 4.6 mph - N/A   Overcast
2:15 AM 48.2 °F - 46.4 °F 93% 30.05 in 5.0 mi Calm Calm - N/A   Overcast
2:35 AM 48.2 °F - 48.2 °F 100% 30.05 in 10.0 mi South 5.8 mph - N/A   Overcast
2:55 AM 50.0 °F - 48.2 °F 94% 30.05 in 10.0 mi South 3.5 mph - N/A   Overcast
3:35 AM 50.0 °F - 48.2 °F 94% 30.04 in 8.0 mi SE 4.6 mph - N/A   Overcast
3:55 AM 50.0 °F - 48.2 °F 94% 30.04 in 10.0 mi SE 4.6 mph - N/A   Overcast
4:15 AM 50.0 °F - 48.2 °F 94% 30.03 in 5.0 mi Calm Calm - N/A   Overcast
4:35 AM 50.0 °F - 48.2 °F 94% 30.02 in 5.0 mi ESE 4.6 mph - N/A   Overcast
4:55 AM 48.2 °F - 48.2 °F 100% 30.02 in 4.0 mi Calm Calm - N/A   Overcast
5:15 AM 48.2 °F - 48.2 °F 100% 30.01 in 3.0 mi Calm Calm - N/A   Overcast
5:55 AM 48.2 °F - 46.4 °F 93% 30.01 in 3.0 mi Calm Calm - N/A   Overcast
6:15 AM 50.0 °F - 50.0 °F 100% 30.01 in 1.0 mi South 3.5 mph - N/A   Overcast
6:35 AM 51.8 °F - 48.2 °F 88% 30.00 in 0.5 mi SE 6.9 mph - N/A   Overcast
6:55 AM 50.0 °F - 48.2 °F 94% 30.00 in 0.2 mi Calm Calm - N/A   Overcast
7:15 AM 51.8 °F - 50.0 °F 94% 30.00 in 0.2 mi Calm Calm - N/A   Overcast
7:35 AM 51.8 °F - 50.0 °F 94% 30.00 in 0.2 mi South 3.5 mph - N/A   Overcast
7:55 AM 51.8 °F - 51.8 °F 100% 30.00 in 0.5 mi Calm Calm - N/A   Overcast
8:15 AM 51.8 °F - 51.8 °F 100% 29.99 in 0.2 mi Calm Calm - N/A   Overcast
8:35 AM 51.8 °F - 51.8 °F 100% 29.99 in 0.2 mi Calm Calm - N/A   Overcast
8:55 AM 53.6 °F - 51.8 °F 94% 29.98 in 1.0 mi South 4.6 mph - N/A   Overcast
9:35 AM 53.6 °F - 53.6 °F 100% 29.98 in 3.0 mi South 6.9 mph - N/A   Overcast
9:56 AM 53.6 °F - 53.6 °F 100% 29.96 in 3.0 mi SSE 6.9 mph - N/A   Overcast
10:15 AM 55.4 °F - 53.6 °F 94% 29.96 in 5.0 mi South 9.2 mph - N/A   Overcast
10:35 AM 55.4 °F - 53.6 °F 94% 29.95 in 6.0 mi South 8.1 mph - N/A   Overcast
10:56 AM 55.4 °F - 53.6 °F 94% 29.94 in 2.5 mi South 5.8 mph - N/A   Overcast
11:15 AM 55.4 °F - 53.6 °F 94% 29.93 in 1.5 mi SE 6.9 mph - N/A   Overcast
11:35 AM 55.4 °F - 55.4 °F 100% 29.91 in 7.0 mi SE 10.4 mph - N/A   Overcast
11:55 AM 55.4 °F - 53.6 °F 94% 29.90 in 5.0 mi South 6.9 mph - N/A   Overcast
12:15 PM 55.4 °F - 53.6 °F 94% 29.89 in 7.0 mi SSE 6.9 mph - N/A   Overcast
1:15 PM 57.2 °F - 55.4 °F 94% 29.85 in 10.0 mi SSE 6.9 mph - N/A   Overcast
1:35 PM 55.4 °F - 55.4 °F 100% 29.85 in 10.0 mi South 5.8 mph - N/A   Overcast
1:55 PM 55.4 °F - 55.4 °F 100% 29.83 in 4.0 mi Calm Calm - 0.06 in   Overcast
2:15 PM 57.2 °F - 55.4 °F 94% 29.82 in 7.0 mi SE 4.6 mph - 0.02 in   Overcast
2:35 PM 57.2 °F - 55.4 °F 94% 29.81 in 5.0 mi Calm Calm - 0.03 in   Overcast
2:55 PM 57.2 °F - 55.4 °F 94% 29.80 in 3.0 mi Calm Calm - 0.07 in   Overcast
3:15 PM 55.4 °F - 55.4 °F 100% 29.78 in 5.0 mi East 3.5 mph - 0.01 in   Overcast
3:35 PM 55.4 °F - 55.4 °F 100% 29.76 in 10.0 mi East 3.5 mph - 0.01 in   Overcast
3:55 PM 55.4 °F - 55.4 °F 100% 29.75 in 7.0 mi ESE 5.8 mph - 0.01 in   Overcast
4:15 PM 55.4 °F - 55.4 °F 100% 29.74 in 5.0 mi East 3.5 mph - 0.04 in   Overcast
4:35 PM 55.4 °F - 55.4 °F 100% 29.73 in 3.0 mi ESE 3.5 mph - 0.13 in   Overcast
4:55 PM 55.4 °F - 55.4 °F 100% 29.72 in 4.0 mi Calm Calm - 0.21 in   Overcast
5:15 PM 55.4 °F - 55.4 °F 100% 29.71 in 10.0 mi SE 5.8 mph - 0.03 in   Overcast
5:35 PM 55.4 °F - 55.4 °F 100% 29.70 in 5.0 mi SE 5.8 mph - 0.04 in   Overcast
5:55 PM 55.4 °F - 55.4 °F 100% 29.69 in 7.0 mi South 9.2 mph - 0.05 in   Overcast
6:15 PM 55.4 °F - 55.4 °F 100% 29.68 in 3.0 mi South 5.8 mph - 0.01 in   Overcast
6:35 PM 55.4 °F - 53.6 °F 94% 29.67 in 4.0 mi South 4.6 mph - 0.03 in   Overcast
6:55 PM 55.4 °F - 53.6 °F 94% 29.65 in 5.0 mi Calm Calm - 0.05 in   Overcast
7:15 PM 55.4 °F - 53.6 °F 94% 29.64 in 3.0 mi Calm Calm - 0.06 in   Overcast
7:35 PM 55.4 °F - 53.6 °F 94% 29.63 in 2.5 mi Calm Calm - 0.09 in   Overcast
7:55 PM 55.4 °F - 53.6 °F 94% 29.61 in 3.0 mi Calm Calm - 0.22 in   Overcast
8:15 PM 55.4 °F - 53.6 °F 94% 29.60 in 1.8 mi Calm Calm - 0.01 in   Overcast
8:35 PM 55.4 °F - 53.6 °F 94% 29.58 in 1.0 mi Calm Calm - 0.02 in   Overcast
8:55 PM 55.4 °F - 53.6 °F 94% 29.57 in 3.0 mi Calm Calm - 0.03 in   Overcast
9:15 PM 55.4 °F - 53.6 °F 94% 29.55 in 5.0 mi Calm Calm - 0.02 in   Overcast
9:35 PM 55.4 °F - 53.6 °F 94% 29.53 in 5.0 mi Calm Calm - 0.05 in   Overcast
10:15 PM 55.4 °F - 53.6 °F 94% 29.50 in 1.8 mi NNW 3.5 mph - N/A   Overcast
10:35 PM 55.4 °F - 53.6 °F 94% 29.49 in 2.5 mi NW 4.6 mph - N/A   Overcast
10:55 PM 55.4 °F - 53.6 °F 94% 29.48 in 2.5 mi NW 5.8 mph - N/A   Overcast
11:15 PM 55.4 °F - 53.6 °F 94% 29.47 in 5.0 mi NNW 4.6 mph - N/A   Overcast
11:35 PM 55.4 °F - 53.6 °F 94% 29.45 in 9.0 mi North 8.1 mph - N/A   Overcast
11:55 PM 55.4 °F - 53.6 °F 94% 29.45 in 10.0 mi North 5.8 mph - 0.01 in   Overcast